When you browse on this site, cookies collect data to enhance your experience and personalize the content and advertising you see.
Visit our Privacy Policy to learn more. By continuing to use the site, you agree to this use of cookies and data.
  • In Sweden
  • List of Countries
  • For 7 days
  • Water Temperature
  • Satellite Maps
  • Weather Map
  • Weather Widgets
  • user-avatar
    Login

    Hourly Weather Birecik

    Today, 19 November, Monday

    Time Temperature Precipitation Wind Pressure Humidity
    00:00 +13°C° 0 mm 1 mps 728 mmHg 45%
    01:00 +13°C° 0 mm 1 mps 728 mmHg 45%
    02:00 +12°C° 0 mm 1 mps 728 mmHg 45%
    03:00 +12°C° 0 mm 1 mps 727 mmHg 46%
    04:00 +12°C° 0 mm 1 mps 727 mmHg 46%
    05:00 +12°C° 0 mm 1 mps 727 mmHg 46%
    06:00 +12°C° 0 mm 1 mps 728 mmHg 46%
    07:00 +13°C° 0 mm 1 mps 728 mmHg 44%
    08:00 +13°C° 0 mm 2 mps 728 mmHg 42%
    09:00 +14°C° 0 mm 2 mps 728 mmHg 41%
    10:00 +15°C° 0 mm 2 mps 728 mmHg 39%
    11:00 +16°C° 0 mm 2 mps 728 mmHg 36%
    12:00 +17°C° 0 mm 2 mps 728 mmHg 34%
    13:00 +17°C° 0 mm 2 mps 728 mmHg 35%
    14:00 +18°C° 0 mm 2 mps 728 mmHg 35%
    15:00 +18°C° 0 mm 2 mps 728 mmHg 35%
    16:00 +18°C° 0 mm 1 mps 728 mmHg 39%
    17:00 +16°C° 0 mm 1 mps 728 mmHg 43%
    18:00 +15°C° 0 mm 1 mps 728 mmHg 48%
    19:00 +15°C° 0 mm 1 mps 728 mmHg 49%
    20:00 +13°C° 0 mm 0 mps 728 mmHg 50%
    21:00 +13°C° 0 mm 0 mps 728 mmHg 51%
    22:00 +13°C° 0 mm 0 mps 728 mmHg 52%
    23:00 +12°C° 0 mm 0 mps 728 mmHg 52%

    Tomorrow, 20 November, Tuesday

    Time Temperature Precipitation Wind Pressure Humidity
    00:00 +12°C° 0 mm 0 mps 728 mmHg 53%
    01:00 +12°C° 0 mm 0 mps 728 mmHg 53%
    02:00 +12°C° 0 mm 0 mps 728 mmHg 54%
    03:00 +12°C° 0 mm 0 mps 728 mmHg 54%
    04:00 +11°C° 0 mm 0 mps 728 mmHg 55%
    05:00 +11°C° 0 mm 0 mps 728 mmHg 55%
    06:00 +11°C° 0 mm 0 mps 728 mmHg 56%
    07:00 +12°C° 0 mm 0 mps 728 mmHg 53%
    08:00 +13°C° 0 mm 0 mps 728 mmHg 51%
    09:00 +14°C° 0 mm 0 mps 729 mmHg 48%
    10:00 +16°C° 0 mm 1 mps 729 mmHg 45%
    11:00 +19°C° 0 mm 1 mps 729 mmHg 42%
    12:00 +20°C° 0 mm 1 mps 729 mmHg 39%
    13:00 +19°C° 0 mm 2 mps 728 mmHg 37%
    14:00 +20°C° 0 mm 2 mps 728 mmHg 36%
    15:00 +21°C° 0 mm 2 mps 728 mmHg 35%
    16:00 +20°C° 0 mm 2 mps 728 mmHg 39%
    17:00 +18°C° 0 mm 2 mps 727 mmHg 43%
    18:00 +17°C° 0 mm 2 mps 727 mmHg 47%
    19:00 +18°C° 0 mm 1 mps 727 mmHg 49%
    20:00 +16°C° 0 mm 1 mps 727 mmHg 51%
    21:00 +16°C° 0 mm 1 mps 727 mmHg 52%
    22:00 +16°C° 0 mm 1 mps 727 mmHg 53%
    23:00 +15°C° 0 mm 1 mps 727 mmHg 54%

    Day after tomorrow, 21 November, Wednesday

    Time Temperature Precipitation Wind Pressure Humidity
    00:00 +15°C° 0 mm 1 mps 727 mmHg 54%
    01:00 +14°C° 0 mm 1 mps 727 mmHg 55%
    02:00 +14°C° 0 mm 1 mps 726 mmHg 55%
    03:00 +14°C° 0 mm 1 mps 726 mmHg 56%
    04:00 +14°C° 0 mm 1 mps 726 mmHg 56%
    05:00 +13°C° 0 mm 1 mps 726 mmHg 56%
    06:00 +13°C° 0 mm 1 mps 725 mmHg 56%
    07:00 +14°C° 0 mm 1 mps 726 mmHg 54%
    08:00 +15°C° 0 mm 1 mps 726 mmHg 52%
    09:00 +16°C° 0 mm 1 mps 726 mmHg 49%
    10:00 +18°C° 0 mm 1 mps 726 mmHg 46%
    11:00 +18°C° 0 mm 1 mps 726 mmHg 43%
    12:00 +19°C° 0 mm 1 mps 726 mmHg 39%
    13:00 +20°C° 0 mm 1 mps 725 mmHg 39%
    14:00 +20°C° 0 mm 1 mps 725 mmHg 38%
    15:00 +20°C° 0 mm 1 mps 724 mmHg 37%
    16:00 +19°C° 0 mm 1 mps 724 mmHg 42%
    17:00 +19°C° 0 mm 1 mps 724 mmHg 46%
    18:00 +18°C° 0 mm 1 mps 724 mmHg 51%
    19:00 +18°C° 0 mm 1 mps 724 mmHg 53%
    20:00 +16°C° 0 mm 1 mps 724 mmHg 56%
    21:00 +16°C° 0 mm 1 mps 724 mmHg 58%
    22:00 +16°C° 0 mm 1 mps 724 mmHg 60%
    23:00 +16°C° 0 mm 1 mps 724 mmHg 62%

    22 November, Thursday

    Time Temperature Precipitation Wind Pressure Humidity
    00:00 +15°C° 0 mm 1 mps 724 mmHg 64%
    01:00 +15°C° 0.1 mm 1 mps 724 mmHg 65%
    02:00 +15°C° 0.1 mm 1 mps 724 mmHg 66%
    03:00 +15°C° 0.1 mm 2 mps 723 mmHg 66%
    04:00 +15°C° 0.1 mm 2 mps 723 mmHg 68%
    05:00 +14°C° 0.1 mm 2 mps 723 mmHg 69%
    06:00 +14°C° 0.1 mm 2 mps 723 mmHg 70%
    07:00 +14°C° 0 mm 2 mps 723 mmHg 70%
    08:00 +14°C° 0 mm 2 mps 723 mmHg 70%
    09:00 +13°C° 0 mm 3 mps 724 mmHg 70%
    10:00 +14°C° 0 mm 3 mps 724 mmHg 69%
    11:00 +14°C° 0 mm 3 mps 723 mmHg 67%
    12:00 +16°C° 0 mm 3 mps 723 mmHg 66%
    13:00 +16°C° 0.1 mm 3 mps 723 mmHg 66%
    14:00 +16°C° 0.1 mm 3 mps 723 mmHg 65%
    15:00 +17°C° 0.1 mm 3 mps 722 mmHg 65%
    16:00 +16°C° 0 mm 3 mps 722 mmHg 68%
    17:00 +14°C° 0 mm 3 mps 722 mmHg 72%
    18:00 +14°C° 0 mm 3 mps 722 mmHg 75%
    19:00 +14°C° 0.1 mm 3 mps 723 mmHg 77%
    20:00 +13°C° 0.1 mm 3 mps 723 mmHg 79%
    21:00 +13°C° 0.1 mm 3 mps 723 mmHg 81%
    22:00 +13°C° 0 mm 2 mps 723 mmHg 81%
    23:00 +13°C° 0 mm 2 mps 723 mmHg 82%

    23 November, Friday

    Time Temperature Precipitation Wind Pressure Humidity
    00:00 +13°C° 0 mm 2 mps 723 mmHg 83%
    01:00 +13°C° 0 mm 2 mps 723 mmHg 83%
    02:00 +12°C° 0 mm 2 mps 723 mmHg 83%
    03:00 +12°C° 0 mm 2 mps 723 mmHg 83%
    04:00 +12°C° 0 mm 2 mps 723 mmHg 83%
    05:00 +12°C° 0 mm 2 mps 723 mmHg 83%
    06:00 +12°C° 0 mm 2 mps 723 mmHg 83%
    07:00 +11°C° 0 mm 3 mps 723 mmHg 81%
    08:00 +12°C° 0 mm 3 mps 723 mmHg 79%
    09:00 +12°C° 0 mm 3 mps 724 mmHg 78%
    10:00 +13°C° 0 mm 3 mps 723 mmHg 73%
    11:00 +14°C° 0 mm 4 mps 723 mmHg 68%
    12:00 +15°C° 0 mm 4 mps 723 mmHg 64%
    13:00 +17°C° 0 mm 4 mps 723 mmHg 62%
    14:00 +17°C° 0 mm 4 mps 723 mmHg 61%
    15:00 +16°C° 0 mm 5 mps 722 mmHg 59%
    16:00 +17°C° 0.3 mm 4 mps 722 mmHg 62%
    17:00 +15°C° 0.3 mm 4 mps 722 mmHg 65%
    18:00 +16°C° 0.3 mm 3 mps 722 mmHg 68%
    19:00 +14°C° 0.4 mm 3 mps 723 mmHg 71%
    20:00 +14°C° 0.4 mm 3 mps 723 mmHg 73%
    21:00 +13°C° 0.4 mm 3 mps 723 mmHg 75%
    22:00 +13°C° 0.1 mm 3 mps 723 mmHg 76%
    23:00 +13°C° 0.1 mm 4 mps 724 mmHg 76%

    24 November, Saturday

    Time Temperature Precipitation Wind Pressure Humidity
    00:00 +13°C° 0.1 mm 4 mps 724 mmHg 77%
    01:00 +13°C° 0.2 mm 4 mps 724 mmHg 76%
    02:00 +12°C° 0.2 mm 4 mps 724 mmHg 76%
    03:00 +12°C° 0.2 mm 5 mps 724 mmHg 76%
    04:00 +12°C° 0.1 mm 5 mps 724 mmHg 76%
    05:00 +12°C° 0.1 mm 5 mps 724 mmHg 77%
    06:00 +12°C° 0.1 mm 5 mps 724 mmHg 77%
    07:00 +11°C° 0.1 mm 6 mps 725 mmHg 78%
    08:00 +11°C° 0.1 mm 7 mps 725 mmHg 79%
    09:00 +12°C° 0.1 mm 7 mps 726 mmHg 80%
    10:00 +12°C° 0.2 mm 7 mps 726 mmHg 80%
    11:00 +12°C° 0.2 mm 7 mps 726 mmHg 80%
    12:00 +12°C° 0.2 mm 7 mps 726 mmHg 79%
    13:00 +13°C° 0.4 mm 6 mps 726 mmHg 80%
    14:00 +13°C° 0.4 mm 6 mps 726 mmHg 81%
    15:00 +13°C° 0.4 mm 6 mps 725 mmHg 81%
    16:00 +13°C° 0.4 mm 6 mps 726 mmHg 82%
    17:00 +13°C° 0.4 mm 5 mps 726 mmHg 84%
    18:00 +13°C° 0.4 mm 5 mps 726 mmHg 85%
    19:00 +12°C° 0.2 mm 5 mps 726 mmHg 86%
    20:00 +12°C° 0.2 mm 5 mps 726 mmHg 86%
    21:00 +12°C° 0.2 mm 4 mps 726 mmHg 87%
    22:00 +12°C° 0.3 mm 4 mps 726 mmHg 87%
    23:00 +12°C° 0.3 mm 4 mps 726 mmHg 87%
    Show more